Location: Camp at the Woods
(43.2055°N, 93.0905°W)
Time: 00:18:31
(UTC+00:00)

Cosmos 2227 Rocket - Pass Details

Date: 21 May 2025
Orbit: 837 x 844 km, 71.0° (Epoch: 12 June)

Event Time Altitude Azimuth Distance (km) Brightness Sun altitude
Exits shadow 07:22:41 18° 126° (SE) 1,935 3.9 -24.3°
Maximum altitude 07:24:29 21° 100° (E) 1,793 4.0 -24.2°
Drops below altitude 10° 07:28:35 10° 53° (NE) 2,459 5.4 -23.9°
Sets 07:31:34 0° 38° (NE) 3,400 6.6 -23.8°
